GW0822 Weather Reports


time (UTC)temp
F
wind
direction
speed
knots
gust
knots
rain 1hr
in
rain 24hr
in
rain mn
in
humidity
%
barometer
mb
20260504212723 68 289 6.1 11.3 0.00 0.00 0.00 37 1009.2
20260504212220 68 269 6.1 10.4 0.00 0.00 0.00 36 1009.2
20260504211717 68 277 9.6 12.2 0.00 0.00 0.00 36 1009.3
20260504211213 70 288 0.0 8.7 0.00 0.00 0.00 35 1009.1
20260504210711 71 198 4.3 5.2 0.00 0.00 0.00 33 1009.0
20260504210208 69 276 7.8 11.3 0.00 0.00 0.00 34 1009.0
20260504205705 68 279 4.3 6.1 0.00 0.00 0.00 35 1009.0
20260504205202 67 248 5.2 13.0 0.00 0.00 0.00 35 1009.0
20260504204700 67 239 4.3 7.8 0.00 0.00 0.00 35 1009.0
20260504204159 67 276 7.8 17.4 0.00 0.00 0.00 35 1009.0
20260504203657 68 167 11.3 12.2 0.00 0.00 0.00 34 1008.9
20260504203154 67 222 5.2 12.2 0.00 0.00 0.00 35 1009.3
20260504202649 67 269 13.0 14.8 0.00 0.00 0.00 35 1009.1
20260504202146 68 279 12.2 23.5 0.00 0.00 0.00 34 1009.2
20260504201643 68 248 11.3 20.0 0.00 0.00 0.00 34 1009.0
20260504201141 67 272 9.6 13.0 0.00 0.00 0.00 35 1009.3
20260504200637 67 253 6.1 11.3 0.00 0.00 0.00 34 1009.2
20260504200134 68 4 3.5 9.6 0.00 0.00 0.00 34 1009.3
20260504195630 69 287 13.0 15.6 0.00 0.00 0.00 33 1009.5
20260504195126 69 287 6.1 14.8 0.00 0.00 0.00 33 1009.1
20260504194623 68 284 3.5 12.2 0.00 0.00 0.00 34 1009.3
20260504194119 67 264 7.0 15.6 0.00 0.00 0.00 34 1009.3
20260504193615 67 284 11.3 18.2 0.00 0.00 0.00 33 1009.3
20260504193114 67 14 2.6 9.6 0.00 0.00 0.00 34 1009.4
20260504192612 69 284 6.1 15.6 0.00 0.00 0.00 33 1009.2
20260504192110 69 241 9.6 16.5 0.00 0.00 0.00 34 1009.2
20260504191608 69 276 6.1 9.6 0.00 0.00 0.00 33 1009.2
20260504191104 69 259 6.1 14.8 0.00 0.00 0.00 32 1009.4
20260504190600 68 287 18.2 18.2 0.00 0.00 0.00 33 1009.2
20260504190056 69 282 6.1 10.4 0.00 0.00 0.00 32 1009.5
20260504185553 68 284 11.3 21.7 0.00 0.00 0.00 33 1009.4
20260504185050 69 283 13.0 14.8 0.00 0.00 0.00 33 1009.6
20260504184545 67 278 9.6 18.2 0.00 0.00 0.00 33 1009.6
20260504184041 68 271 8.7 20.9 0.00 0.00 0.00 32 1009.7
20260504183538 69 328 3.5 14.8 0.00 0.00 0.00 32 1009.8
20260504183036 68 304 3.5 13.9 0.00 0.00 0.00 33 1009.7
20260504182533 68 241 2.6 10.4 0.00 0.00 0.00 34 1010.0
20260504182030 69 287 7.0 11.3 0.00 0.00 0.00 32 1009.9
20260504181527 68 288 7.8 8.7 0.00 0.00 0.00 32 1009.9
20260504181026 67 145 2.6 18.2 0.00 0.00 0.00 33 1009.9
20260504180524 68 266 11.3 13.0 0.00 0.00 0.00 31 1010.0
20260504180023 67 314 13.0 18.2 0.00 0.00 0.00 32 1010.1
20260504175519 66 238 5.2 13.9 0.00 0.00 0.00 33 1010.0
20260504175016 67 252 6.1 13.9 0.00 0.00 0.00 33 1010.2
20260504174514 66 272 6.1 20.9 0.00 0.00 0.00 32 1010.3
20260504174011 67 264 9.6 18.2 0.00 0.00 0.00 32 1010.5
20260504173508 65 274 10.4 21.7 0.00 0.00 0.00 32 1010.6
20260504173005 66 316 6.1 14.8 0.00 0.00 0.00 32 1010.3
20260504172501 67 294 9.6 13.9 0.00 0.00 0.00 32 1010.4
20260504171957 66 245 6.1 20.0 0.00 0.00 0.00 33 1010.5
20260504171455 66 281 13.0 17.4 0.00 0.00 0.00 32 1010.2
20260504170951 64 278 5.2 20.0 0.00 0.00 0.00 34 1010.4
20260504170447 65 301 7.0 22.6 0.00 0.00 0.00 33 1010.4
20260504160407 65 298 12.2 18.2 0.00 0.00 0.00 35 1011.1
20260504150831 62 255 8.7 17.4 0.00 0.00 0.00 37 1012.1
20260504150328 62 264 6.1 13.9 0.00 0.00 0.00 39 1011.9
20260504141258 60 290 9.6 14.8 0.00 0.00 0.00 39 1012.5
20260504140755 60 277 14.8 19.1 0.00 0.00 0.00 40 1012.5
20260504140250 60 310 11.3 13.0 0.00 0.00 0.00 41 1012.4
20260504130719 57 330 2.6 9.6 0.00 0.00 0.00 44 1012.9
20260504130215 57 272 7.8 9.6 0.00 0.00 0.00 45 1012.9
20260504120139 51 282 13.0 13.9 0.00 0.00 0.00 52 1013.6
20260504110606 47 264 7.8 12.2 0.00 0.00 0.00 56 1013.4
20260504100522 42 255 3.5 5.2 0.00 0.00 0.00 63 1013.0
20260504081916 44 229 1.7 4.3 0.00 0.00 0.00 59 1012.6
20260504081413 44 252 2.6 5.2 0.00 0.00 0.00 58 1012.5
20260504080909 44 233 0.0 4.3 0.00 0.00 0.00 57 1012.7
20260504080406 44 234 3.5 5.2 0.00 0.00 0.00 57 1012.6
20260504070333 44 258 6.1 7.0 0.00 0.00 0.00 53 1012.5
20260504050721 43 259 2.6 3.5 0.00 0.00 0.00 54 1012.6
20260504050218 43 242 3.5 5.2 0.00 0.00 0.00 54 1012.5
20260504045715 43 291 2.6 5.2 0.00 0.00 0.00 53 1012.7
20260504045215 43 258 4.3 4.3 0.00 0.00 0.00 53 1012.7
20260504044714 43 271 1.7 5.2 0.00 0.00 0.00 52 1012.6
20260504044211 43 258 2.6 3.5 0.00 0.00 0.00 51 1012.7
20260504043708 44 311 3.5 4.3 0.00 0.00 0.00 51 1012.7
20260504043204 44 255 2.6 3.5 0.00 0.00 0.00 51 1012.6
20260504042702 44 284 2.6 3.5 0.00 0.00 0.00 51 1012.7
20260504042158 44 283 2.6 3.5 0.00 0.00 0.00 51 1012.7
20260504041654 44 298 0.0 3.5 0.00 0.00 0.00 52 1012.7
20260504041150 44 297 2.6 4.3 0.00 0.00 0.00 52 1012.4
20260504040647 44 296 2.6 4.3 0.00 0.00 0.00 52 1012.3
20260504040144 44 292 3.5 4.3 0.00 0.00 0.00 51 1012.4
20260504035641 44 310 3.5 4.3 0.00 0.00 0.00 50 1012.2
20260504035137 44 273 5.2 6.1 0.00 0.00 0.00 50 1012.6
20260504034635 44 322 1.7 4.3 0.00 0.00 0.00 51 1012.3
20260504034132 44 280 3.5 5.2 0.00 0.00 0.00 50 1012.4
20260504033630 44 289 4.3 6.1 0.00 0.00 0.00 49 1012.5
20260504033127 44 280 4.3 6.1 0.00 0.00 0.00 51 1012.2
20260504032624 44 277 2.6 5.2 0.00 0.00 0.00 50 1012.5
20260504032121 44 271 2.6 4.3 0.00 0.00 0.00 49 1012.3
20260504031618 44 268 1.7 5.2 0.00 0.00 0.00 49 1012.2
20260504031114 45 302 3.5 5.2 0.00 0.00 0.00 48 1012.5
20260504030611 44 281 4.3 4.3 0.00 0.00 0.00 48 1012.3
20260504030108 44 287 2.6 4.3 0.00 0.00 0.00 48 1012.1
20260504025604 44 308 3.5 5.2 0.00 0.00 0.00 48 1012.1
20260504025101 44 290 3.5 4.3 0.00 0.00 0.00 48 1012.3
20260504024559 44 298 3.5 6.1 0.00 0.00 0.00 47 1012.1
20260504024055 44 282 4.3 5.2 0.00 0.00 0.00 47 1012.2
20260504023551 44 290 4.3 4.3 0.00 0.00 0.00 47 1012.0
20260504023047 44 300 2.6 6.1 0.00 0.00 0.00 48 1012.1
20260504022544 44 295 3.5 4.3 0.00 0.00 0.00 47 1012.1
20260504022040 43 278 2.6 4.3 0.00 0.00 0.00 49 1012.1
20260504021538 43 291 3.5 4.3 0.00 0.00 0.00 49 1012.0
20260504021035 42 294 3.5 5.2 0.00 0.00 0.00 54 1011.7
20260504020531 42 287 4.3 6.1 0.00 0.00 0.00 56 1012.0
20260504020028 43 295 2.6 6.1 0.00 0.00 0.00 52 1011.7
20260504015524 43 283 4.3 5.2 0.00 0.00 0.00 51 1011.7
20260504015020 43 304 2.6 5.2 0.00 0.00 0.00 51 1012.0
20260504014517 43 269 2.6 4.3 0.00 0.00 0.00 51 1011.5
20260504014014 43 261 4.3 4.3 0.00 0.00 0.00 51 1011.6
20260504013512 42 144 0.0 2.6 0.00 0.00 0.00 56 1011.6
20260504013009 42 292 1.7 4.3 0.00 0.00 0.00 56 1011.5
20260504012506 43 314 0.0 4.3 0.00 0.00 0.00 56 1011.5
20260504012004 43 267 3.5 4.3 0.00 0.00 0.00 53 1011.6
20260504011500 43 283 2.6 3.5 0.00 0.00 0.00 53 1011.4
20260504010955 44 224 0.0 1.7 0.00 0.00 0.00 52 1011.3
20260504010452 44 291 0.0 2.6 0.00 0.00 0.00 49 1011.3
20260504005948 44 265 0.0 2.6 0.00 0.00 0.00 49 1011.2
20260504005445 44 283 0.0 3.5 0.00 0.00 0.00 50 1010.9
20260504004943 44 269 0.0 3.5 0.00 0.00 0.00 51 1011.0
20260504004440 44 287 0.0 4.3 0.00 0.00 0.00 51 1010.9
20260504003937 44 243 0.0 1.7 0.00 0.00 0.00 51 1010.8
20260504003433 43 186 0.0 0.0 0.00 0.00 0.00 53 1010.8
20260504002930 43 113 0.0 1.7 0.00 0.00 0.00 52 1010.8
20260504002427 43 119 0.0 1.7 0.00 0.00 0.00 51 1010.9
20260504001924 44 124 0.0 0.0 0.00 0.00 0.00 51 1010.8
20260504001422 44 128 0.0 2.6 0.00 0.00 0.00 50 1010.7
20260504000918 45 95 0.0 1.7 0.00 0.00 0.00 49 1010.6
20260504000416 46 224 0.0 0.0 0.00 0.00 0.00 47 1010.7
20260503235913 46 224 0.0 0.0 0.00 0.00 0.00 46 1010.4
20260503235410 47 290 0.0 0.0 0.00 0.00 0.00 46 1010.5
20260503234908 47 285 1.7 2.6 0.00 0.00 0.00 45 1010.5
20260503234405 47 290 0.0 2.6 0.00 0.00 0.00 45 1010.5
20260503233903 48 315 3.5 4.3 0.00 0.00 0.00 44 1010.3
20260503233359 48 295 2.6 6.1 0.00 0.00 0.00 43 1010.6
20260503232855 48 312 0.0 4.3 0.00 0.00 0.00 43 1010.3
20260503232353 48 330 4.3 6.1 0.00 0.00 0.00 44 1010.3
20260503231850 49 335 2.6 4.3 0.00 0.00 0.00 43 1010.2
20260503231347 49 332 3.5 6.1 0.00 0.00 0.00 42 1010.2
20260503230843 49 342 4.3 7.0 0.00 0.00 0.00 42 1010.2
20260503230340 49 310 6.1 7.8 0.00 0.00 0.00 42 1010.0
20260503225839 49 305 6.1 9.6 0.00 0.00 0.00 42 1010.2
20260503225334 49 306 6.1 10.4 0.00 0.00 0.00 41 1010.4
20260503224831 49 281 9.6 13.9 0.00 0.00 0.00 40 1010.1
20260503224328 49 311 7.8 14.8 0.00 0.00 0.00 40 1009.9
20260503223826 50 315 7.0 14.8 0.00 0.00 0.00 40 1010.0
20260503223323 50 315 12.2 17.4 0.00 0.00 0.00 40 1010.0
20260503222818 49 3 7.0 13.9 0.00 0.00 0.00 41 1010.0
20260503222317 49 11 4.3 14.8 0.00 0.00 0.00 41 1010.1
20260503221815 50 304 7.0 11.3 0.00 0.00 0.00 40 1010.1
20260503221314 49 298 7.8 15.6 0.00 0.00 0.00 39 1010.0
20260503220809 49 201 5.2 16.5 0.00 0.00 0.00 41 1010.0
20260503220306 49 292 9.6 16.5 0.00 0.00 0.00 39 1009.7
20260503215802 50 327 7.0 16.5 0.00 0.00 0.00 39 1009.7
20260503215259 50 306 3.5 14.8 0.00 0.00 0.00 40 1009.8
20260503214757 50 309 8.7 14.8 0.00 0.00 0.00 39 1009.8
20260503214254 50 294 10.4 13.9 0.00 0.00 0.00 40 1009.5
20260503213752 49 332 13.0 20.9 0.00 0.00 0.00 39 1009.5
20260503213249 49 297 7.0 11.3 0.00 0.00 0.00 40 1009.3